Tracking 18957 objects as of 22-Jan-2018
HD Live streaming from Space Station
objects crossing your sky now

NADEZHDA 1

Track NADEZHDA 1 now!
10-day predictions
NADEZHDA 1 is classified as:


NORAD ID: 20103
Int'l Code: 1989-050A
Perigee: 962.3 km
Apogee: 1,018.5 km
Inclination: 83.0 °
Period: 104.8 minutes
Semi major axis: 7361 km
RCS: 2.0999 m2 (large)
Launch date: July 4, 1989
Source: Commonwealth of Independent States (former USSR) (CIS)
Launch site: PLESETSK MISSILE AND SPACE COMPLEX (PKMTR)

Search and rescue; part of COSPAS/SARSAT fleet.
aabbcc
Your satellite tracking list
Your tracking list is empty




NASA's NSSDC Master Catalog

Two Line Element Set (TLE):
1 20103U 89050A   18021.55294824 +.00000014 +00000-0 -11818-5 0  9999
2 20103 082.9591 047.5485 0038142 028.9177 125.3609 13.74558347431851
Source of the keplerian elements: AFSPC